(°C)
11°
14°
16°
18°
19°
19°
(°C)
10°
12°
14°
14°
14°
NO
ONO
ONO
ONO
ONO
ONO
ONO
(km/u)
13-20
11-21
12-22
12-22
12-21
14-22
15-22
(mm)
0
0
0
0
0
0
0
(%)
0
0
0
0
0
0
0

Zonverhoging

/ 13.6°
sun-icon
UV 3
07:58
18:42
Laatste kwartier (266°)
00:00
14:54

METAR voor Ioánnina (LGIO)

Tijd Voorwaarden Temperatuur/
Dauwpunt
Wind Zicht Weer Wolken Luchtdruk Wijzigen Ruw
VFR 10°C / 1°C 200º 4kt >10km - Clouds and Visibility OK 1021 - LGIO 280550Z 20004KT CAVOK 10/01 Q1021
6°C / 1°C variable 3kt - 1021 - LGIO 280520Z AUTO VRB03KT //// // ////// 06/01 Q1021 RE//
6°C / 1°C variable 1kt - 1021 - LGIO 280450Z AUTO VRB01KT //// // ////// 06/01 Q1021 RE//
6°C / 0°C variable 3kt - 1021 - LGIO 280420Z AUTO VRB03KT //// // ////// 06/00 Q1021 RE//
7°C / 0°C variable 2kt - 1021 - LGIO 280350Z AUTO VRB02KT //// // ////// 07/00 Q1021 RE//
6°C / 0°C variable 2kt - 1021 - LGIO 280320Z AUTO VRB02KT //// // ////// 06/00 Q1021 RE//
6°C / 0°C variable 2kt - 1021 - LGIO 280250Z AUTO VRB02KT //// // ////// 06/00 Q1021 RE//
7°C / 0°C 10º variable 250º to 040º 4kt - 1021 - LGIO 280220Z AUTO 01004KT 250V040 //// // ////// 07/00 Q1021 RE//
7°C / 0°C variable 3kt - 1021 - LGIO 280150Z AUTO VRB03KT //// // ////// 07/00 Q1021 RE//
7°C / 1°C variable 0kt - 1021 - LGIO 280120Z AUTO 00000KT //// // ////// 07/01 Q1021 RE//
7°C / 1°C variable 2kt - 1021 - LGIO 280050Z AUTO VRB02KT //// // ////// 07/01 Q1021 RE//
6°C / 1°C variable 3kt - 1021 - LGIO 280020Z AUTO VRB03KT //// // ////// 06/01 Q1021 RE//
7°C / 1°C variable 0kt - 1021 - LGIO 272350Z AUTO 00000KT //// // ////// 07/01 Q1021 RE//
9°C / 0°C variable 2kt - 1021 - LGIO 272320Z AUTO VRB02KT //// // ////// 09/00 Q1021 RE//
6°C / 1°C variable 2kt - 1022 - LGIO 272250Z AUTO VRB02KT //// // ////// 06/01 Q1022 RE//
5°C / 2°C variable 2kt - 1021 - LGIO 272220Z AUTO VRB02KT //// // ////// 05/02 Q1021 RE//
5°C / 2°C variable 1kt - 1022 - LGIO 272150Z AUTO VRB01KT //// // ////// 05/02 Q1022 RE//
4°C / 2°C variable 2kt - 1022 - LGIO 272120Z AUTO VRB02KT //// // ////// 04/02 Q1022 RE//
4°C / 2°C variable 1kt - 1021 - LGIO 272050Z AUTO VRB01KT //// // ////// 04/02 Q1021 RE//
5°C / 3°C variable 1kt - 1021 - LGIO 272020Z AUTO VRB01KT //// // ////// 05/03 Q1021 RE//
7°C / 3°C variable 2kt - 1021 - LGIO 271950Z AUTO VRB02KT //// // ////// 07/03 Q1021 RE//
7°C / 3°C variable 2kt - 1021 - LGIO 271920Z AUTO VRB02KT //// // ////// 07/03 Q1021 RE//
8°C / 3°C variable 3kt - 1021 - LGIO 271850Z AUTO VRB03KT //// // ////// 08/03 Q1021 RE//
10°C / 3°C variable 1kt - 1021 - LGIO 271820Z AUTO VRB01KT //// // ////// 10/03 Q1021 RE//

VFR

10°C / 1°C

[Meer]
Wind 200º 4kt
Zicht >10km
Weer -
Wolken Clouds and Visibility OK
Luchtdruk 1021
Wijzigen -
Ruw LGIO 280550Z 20004KT CAVOK 10/01 Q1021

6°C / 1°C

[Meer]
Wind variable 3kt
Zicht
Weer -
Wolken
Luchtdruk 1021
Wijzigen -
Ruw LGIO 280520Z AUTO VRB03KT //// // ////// 06/01 Q1021 RE//

6°C / 1°C

[Meer]
Wind variable 1kt
Zicht
Weer -
Wolken
Luchtdruk 1021
Wijzigen -
Ruw LGIO 280450Z AUTO VRB01KT //// // ////// 06/01 Q1021 RE//

6°C / 0°C

[Meer]
Wind variable 3kt
Zicht
Weer -
Wolken
Luchtdruk 1021
Wijzigen -
Ruw LGIO 280420Z AUTO VRB03KT //// // ////// 06/00 Q1021 RE//

7°C / 0°C

[Meer]
Wind variable 2kt
Zicht
Weer -
Wolken
Luchtdruk 1021
Wijzigen -
Ruw LGIO 280350Z AUTO VRB02KT //// // ////// 07/00 Q1021 RE//

6°C / 0°C

[Meer]
Wind variable 2kt
Zicht
Weer -
Wolken
Luchtdruk 1021
Wijzigen -
Ruw LGIO 280320Z AUTO VRB02KT //// // ////// 06/00 Q1021 RE//

6°C / 0°C

[Meer]
Wind variable 2kt
Zicht
Weer -
Wolken
Luchtdruk 1021
Wijzigen -
Ruw LGIO 280250Z AUTO VRB02KT //// // ////// 06/00 Q1021 RE//

7°C / 0°C

[Meer]
Wind 10º variable 250º to 040º 4kt
Zicht
Weer -
Wolken
Luchtdruk 1021
Wijzigen -
Ruw LGIO 280220Z AUTO 01004KT 250V040 //// // ////// 07/00 Q1021 RE//

7°C / 0°C

[Meer]
Wind variable 3kt
Zicht
Weer -
Wolken
Luchtdruk 1021
Wijzigen -
Ruw LGIO 280150Z AUTO VRB03KT //// // ////// 07/00 Q1021 RE//

7°C / 1°C

[Meer]
Wind variable 0kt
Zicht
Weer -
Wolken
Luchtdruk 1021
Wijzigen -
Ruw LGIO 280120Z AUTO 00000KT //// // ////// 07/01 Q1021 RE//

7°C / 1°C

[Meer]
Wind variable 2kt
Zicht
Weer -
Wolken
Luchtdruk 1021
Wijzigen -
Ruw LGIO 280050Z AUTO VRB02KT //// // ////// 07/01 Q1021 RE//

6°C / 1°C

[Meer]
Wind variable 3kt
Zicht
Weer -
Wolken
Luchtdruk 1021
Wijzigen -
Ruw LGIO 280020Z AUTO VRB03KT //// // ////// 06/01 Q1021 RE//

7°C / 1°C

[Meer]
Wind variable 0kt
Zicht
Weer -
Wolken
Luchtdruk 1021
Wijzigen -
Ruw LGIO 272350Z AUTO 00000KT //// // ////// 07/01 Q1021 RE//

9°C / 0°C

[Meer]
Wind variable 2kt
Zicht
Weer -
Wolken
Luchtdruk 1021
Wijzigen -
Ruw LGIO 272320Z AUTO VRB02KT //// // ////// 09/00 Q1021 RE//

6°C / 1°C

[Meer]
Wind variable 2kt
Zicht
Weer -
Wolken
Luchtdruk 1022
Wijzigen -
Ruw LGIO 272250Z AUTO VRB02KT //// // ////// 06/01 Q1022 RE//

5°C / 2°C

[Meer]
Wind variable 2kt
Zicht
Weer -
Wolken
Luchtdruk 1021
Wijzigen -
Ruw LGIO 272220Z AUTO VRB02KT //// // ////// 05/02 Q1021 RE//

5°C / 2°C

[Meer]
Wind variable 1kt
Zicht
Weer -
Wolken
Luchtdruk 1022
Wijzigen -
Ruw LGIO 272150Z AUTO VRB01KT //// // ////// 05/02 Q1022 RE//

4°C / 2°C

[Meer]
Wind variable 2kt
Zicht
Weer -
Wolken
Luchtdruk 1022
Wijzigen -
Ruw LGIO 272120Z AUTO VRB02KT //// // ////// 04/02 Q1022 RE//

4°C / 2°C

[Meer]
Wind variable 1kt
Zicht
Weer -
Wolken
Luchtdruk 1021
Wijzigen -
Ruw LGIO 272050Z AUTO VRB01KT //// // ////// 04/02 Q1021 RE//

5°C / 3°C

[Meer]
Wind variable 1kt
Zicht
Weer -
Wolken
Luchtdruk 1021
Wijzigen -
Ruw LGIO 272020Z AUTO VRB01KT //// // ////// 05/03 Q1021 RE//

7°C / 3°C

[Meer]
Wind variable 2kt
Zicht
Weer -
Wolken
Luchtdruk 1021
Wijzigen -
Ruw LGIO 271950Z AUTO VRB02KT //// // ////// 07/03 Q1021 RE//

7°C / 3°C

[Meer]
Wind variable 2kt
Zicht
Weer -
Wolken
Luchtdruk 1021
Wijzigen -
Ruw LGIO 271920Z AUTO VRB02KT //// // ////// 07/03 Q1021 RE//

8°C / 3°C

[Meer]
Wind variable 3kt
Zicht
Weer -
Wolken
Luchtdruk 1021
Wijzigen -
Ruw LGIO 271850Z AUTO VRB03KT //// // ////// 08/03 Q1021 RE//

10°C / 3°C

[Meer]
Wind variable 1kt
Zicht
Weer -
Wolken
Luchtdruk 1021
Wijzigen -
Ruw LGIO 271820Z AUTO VRB01KT //// // ////// 10/03 Q1021 RE//

TAF voor Ioánnina (LGIO)

From till


From till Wind variable 3kt. Visibility 10km or more. Few Clouds 2000ft.

Ruw: TAF LGIO 280500Z 2806/2815 VRB03KT 9999 FEW020

Huidige satelliet- en regenbeelden voor Ioánnina, Griekenland

De locatiemarkering is geplaatst op Ioánnina. [Meer]

Het realtime satellietbeeld combineert zichtbaar licht overdag met infraroodstraling 's nachts. 's Nachts is het beeld niet donker, omdat infraroodstraling temperatuurverschillen kan waarnemen. Helaas zijn lage wolken en mist moeilijk te onderscheiden van grondtemperaturen en kunnen dus 's nachts bijna onzichtbaar zijn. Meteosat-satellietbeelden voor Europa worden elke 5 minuten in real time bijgewerkt. De beelden van GOES-16/GOES-17 (Noord- en Zuid-Amerika) en Himawari (Azië) worden om de 10 minuten bijgewerkt.

Neerslag wordt geschat door middel van radar en satellieten. Tijdens de nacht zijn de schattingen van satellieten minder nauwkeurig dan overdag. Oranje kruizen geven plaatsten aan waar bliksem werd waargenomen (boven Europa).

Copyright 2021 EUMETSAT / meteoblue. Bliksemgegevens verstrekt door nowcast.

Radar en neerslag nowcast voor Ioánnina

Motregen
Licht
Matig
Zwaar
Zeer zwaar
Hail

De locatiemarkering wordt geplaatst op Ioánnina. Deze animation toont de neerslag radar van het afgelopen uur, maar ook de 1h verwachting. Motregen of lichte sneeuwval kan onzichtbaar zijn voor de radar. De neerslagintensiteit wordt met kleuren gecodeerd, van lichtblauw tot oranje.